Content
SEND FEEDBACK

Daily
Averages
Monthly
Summary
United States of America

NEW YORK, NEW YORK


Home > North America > United States > New York
Elevation: 131 feet     Latitude: 40 47N     Longitude: 073 58W

WEATHER
 
SELECT A DAY
Number of Records: 152,211;   Date Range: 11/1/95 - 11/24/14
 
SHARE

PRINT THIS DATA

[ ← Previous Day ]
WEATHER ALMANAC - SEPTEMBER 25, 2013
[ Next Day → ]
[ °C ]   °F
Weather ElementAverageHighLow
Temperature62.4 °F72 °F (2:51 pm)53.1 °F (4:51 am)
Dewpoint44.6 °F50 °F (11:51 pm)39.9 °F (1:51 pm)
Humidity53.8 %74 % (4:51 am)33 % (1:51 pm)
Barometer29.93 in29.96 in (1:51 am)29.88 in (3:51 pm)
Wind Speed1.9 mph4.6 mph (3:51 am)
Weather ElementAverage
Visibility10 mi
Wind DirectionNNE (22.2 °)

Weather ElementTotal
Precipitation---
Heating Degree Days2.5 (Base 65)
Growing Degree Days12.6 (Base 50)
Averaged from 23 records on September 25, 2013
WEATHER CONDITIONS BREAKOUT
WIND DIRECTION BREAKOUT
WEATHER BY HOUR - SEPTEMBER 25, 2013
[ °C ]   °F
Local TimeTemperatureDewpointHumidityBarometerVisibilityWind DirectionWind SpeedGust SpeedPrecipitationEventsConditions
1:51 AM60.1 °F42.1 °F51 %29.96 in10.0 miNNE (20°)3.5 mphClear
2:51 AM57.0 °F44.1 °F62 %29.95 in10.0 miVariable3.5 mphClear
3:51 AM55.0 °F44.1 °F67 %29.94 in10.0 miNE (40°)4.6 mphClear
4:51 AM53.1 °F45.0 °F74 %29.94 in10.0 miCalmClear
5:51 AM53.1 °F43.0 °F69 %29.95 in10.0 miCalmClear
6:51 AM53.1 °F45.0 °F74 %29.96 in10.0 miCalmClear
7:51 AM55.0 °F44.1 °F67 %29.96 in10.0 miCalmClear
8:51 AM55.9 °F45.0 °F67 %29.96 in10.0 miVariable3.5 mphClear
9:51 AM60.1 °F44.1 °F55 %29.96 in10.0 miCalmClear
10:51 AM63.0 °F43.0 °F48 %29.96 in10.0 miWNW (290°)4.6 mphClear
11:51 AM66.9 °F42.1 °F40 %29.95 in10.0 miVariable4.6 mphClear
12:51 PM68.0 °F42.1 °F39 %29.94 in10.0 miVariable4.6 mphClear
1:51 PM70.0 °F39.9 °F33 %29.91 in10.0 miCalmClear
2:51 PM72.0 °F41.0 °F33 %29.89 in10.0 miCalmClear
3:51 PM71.1 °F44.1 °F38 %29.88 in10.0 miCalmClear
4:51 PM70.0 °F46.0 °F42 %29.88 in10.0 miCalmClear
5:51 PM70.0 °F46.9 °F44 %29.89 in10.0 miNE (50°)4.6 mphClear
6:51 PM66.0 °F46.9 °F50 %29.89 in10.0 miNNE (30°)3.5 mphClear
7:51 PM64.0 °F46.9 °F54 %29.91 in10.0 miNE (40°)3.5 mphClear
8:51 PM64.0 °F46.9 °F54 %29.92 in10.0 miNE (40°)3.5 mphClear
9:51 PM64.0 °F46.0 °F52 %29.93 in10.0 miCalmClear
10:51 PM63.0 °F48.0 °F58 %29.93 in10.0 miCalmClear
11:51 PM61.0 °F50.0 °F67 %29.94 in10.0 miCalmClear
Hourly data recorded from KNYC, located miles away from New York, New York







STORIES FROM OUR PARTNERS